Regional Weather Roundup
Issued by NWS

Home | Current Version | Previous Version | Graphics & Text | Print | Product List | Glossary On
Versions: 1 2 3 4 5 6 7 8 9 10 11 12 13 14 15 16 17 18 19 20 21 22 23 24 25 26 27 28 29 30 31 32 33 34 35 36 37 38 39 40 41 42 43 44 45 46 47 48 49 50
000
ASUS45 KTFX 120619
RWRMT
MONTANA HOURLY WEATHER ROUNDUP
NATIONAL WEATHER SERVICE GREAT FALLS MT
1219 AM MDT SAT JUL 12 2014

NOTE: "FAIR" INDICATES FEW OR NO CLOUDS BELOW 12000 FEET WITH NO
SIGNIFICANT WEATHER AND/OR OBSTRUCTIONS TO VISIBILITY.

* THESE STATIONS ARE NOT UNDER NWS QUALITY CONTROL. THEY DO NOT
   REPORT WEATHER SUCH AS PRECIPITATION OR FOG.

MTZ001>007-043-120700-
WEST OF THE DIVIDE
CITY           SKY/WX    TMP DP  RH WIND       PRES   REMARKS
KALISPELL      CLEAR     59  54  84 CALM      30.09R
MISSOULA       CLEAR     66  45  47 NW10      30.09R
BUTTE          PTCLDY    66  50  56 NW8       30.22R
MULLAN PASS    CLEAR     63  41  45 N3        30.27R
* ESSEX        N/A       63  50  63 SE4G10     N/A
* LINCOLN      N/A       63  50  63 NE5        N/A
* LOOKOUT PASS N/A       63  47  56 N/A        N/A
* POLSON       N/A       65  43  45 N/A        N/A
* RONAN APT    CLEAR     61  48  62 N/A        N/A
* SEELEY LAKE  N/A       57  45  64 N3G8       N/A
* THOMP F APT  CLEAR     63  46  54 NE4G13     N/A
* YAAK HILL    N/A       66  51  59 SE1        N/A
$$

MTZ008-052>055-120700-
SOUTHWEST MONTANA
CITY           SKY/WX    TMP DP  RH WIND       PRES   REMARKS
BOZEMAN        MOCLDY    68  52  57 NE9       30.13S
DILLON         CLOUDY    63  55  75 S15       30.20F
W YELLOWSTONE  CLOUDY    54  50  86 SW3       30.30S
* THREE FORKS  MOCLDY    66  66 100 N/A        N/A
* BOULDER HILL N/A       62  44  52 N12        N/A
* MONIDA PASS  N/A       61  49  65 SW10       N/A
* RAYNOLDS PAS N/A       61  43  52 SE12       N/A
* WHITEHALL    N/A       71  50  48 N9G16      N/A
* WISE RIVER   N/A       66  47  51 E6G11      N/A
$$

MTZ009>010-012-014-046-048-049-054-120700-
EAST SLOPES AND CENTRAL MONTANA
CITY           SKY/WX    TMP DP  RH WIND       PRES   REMARKS
CUT BANK       CLEAR     61  52  72 E8        30.19R
GREAT FALLS    CLEAR     64  52  65 NE8       30.17R
HELENA         PTCLDY    70  52  53 W9        30.15R
MALMSTROM AFB  CLEAR     64  54  70 NE6       30.18R
* CONRAD       CLEAR     54  52  93 N/A        N/A
* DEARBORN     N/A       65  54  68 N/A        N/A
* EAST GLACIER N/A       55  49  80 N6         N/A
* MONARCH      N/A       56  47  72 SE7        N/A
* PENDROY      N/A       57  52  83 W2         N/A
* SAINT MARY   N/A       56  49  77 SW4        N/A
* SWEET GRASS  N/A       61  54  78 S3         N/A
* WHITE SULPH  N/A       65  51  61 NE10G16    N/A
$$

MTZ011-013-016-021-035-040-045-047-050-051-120700-
NORTH CENTRAL MONTANA
CITY           SKY/WX    TMP DP  RH WIND       PRES   REMARKS
HAVRE          CLEAR     64  55  73 CALM      30.13R
LEWISTOWN      CLEAR     64  52  65 E10       30.19S
* FORT BENTON  CLEAR     66  54  65 NE5       30.15R
* CHESTER      N/A       60  51  72 N3         N/A
* DENTON       N/A       62  51  67 NE4        N/A
* GEYSER       N/A       59  50  72 SE4        N/A
* JUDITH GAP   N/A       60  52  75 S4         N/A
* LOMA         N/A       65  56  73 NE8        N/A
$$

MTZ017>020-022>027-061-062-120700-
NORTHEAST MONTANA
CITY           SKY/WX    TMP DP  RH WIND       PRES   REMARKS
GLASGOW        CLEAR     63  55  75 NE9       30.13S
GLENDIVE       MOCLDY    66  50  56 NE5       30.13F
JORDAN         CLEAR     66  50  56 NE6       30.13S
SIDNEY         MOCLDY    66  54  65 N5        30.14S
WOLF POINT     CLEAR     61  54  78 E5        30.13S
* BEAVER HILL  N/A       64  53  68 E7         N/A
* CIRCLE       N/A       63  53  70 N/A        N/A
* LINDSAY DVD  N/A       62  53  73 NE5        N/A
* NAVAJO       N/A       58  51  78 NW4        N/A
$$

MTZ028>042-056>058-120700-
SOUTHCENTRAL AND SOUTHEAST MONTANA
CITY           SKY/WX    TMP DP  RH WIND       PRES   REMARKS
BAKER          CLOUDY    64  55  73 SE5       30.15F
BILLINGS       MOCLDY    68  54  61 NE12      30.14F
LIVINGSTON     PTCLDY    66  52  61 E12       30.17R
MILES CITY     TSTM      66  59  78 NE9       30.12S
* LAUREL APT   PTCLDY    64  50  61 N/A        N/A
* ROUNDUP APT  CLEAR     66  48  52 N/A        N/A
* ALZADA       N/A       66  62  87 N/A        N/A
* HYSHAM       N/A       69  48  47 E12G18     N/A
* LAME DEER    N/A       67  53  61 N5         N/A
* REED POINT   N/A       65  56  73 SE1        N/A
* ROSCOE HILL  N/A       61  51  70 SW4G9      N/A
$$

REGIONAL REPORTS...DAKOTAS
CITY           SKY/WX    TMP DP  RH WIND       PRES   REMARKS
WILLISTON      FAIR      61  54  78 NE3       30.13S
DICKINSON      CLOUDY    64  57  78 E6        30.12S
CROSBY         N/A       57  57 100 W3        30.14S
TIOGA          MOCLDY    54  54 100 CALM      30.16F
WATFORD CITY   CLEAR     55  54  96 CALM      30.11S
BISMARCK       CLOUDY    68  57  68 CALM      30.11S
GRAND FORKS    PTCLDY    61  55  81 W7        30.03R
FARGO          MOCLDY    66  57  73 N6        30.03R
BUFFALO SD     CLOUDY    66  57  73 E10       30.06F
RAPID CITY     CLOUDY    68  57  68 SW12      30.13F
$$

REGIONAL REPORTS...WYOMING/IDAHO/WASHINGTON
CITY           SKY/WX    TMP DP  RH WIND       PRES   REMARKS
GILLETTE       CLOUDY    64  55  73 N5        30.17R
SHERIDAN       CLOUDY    63  59  87 VRB3      30.13R
CODY           CLOUDY    64  54  70 W5        30.21S
YELLOWSTONE LA MOCLDY    48  46  93 CALM      30.41S
SALMON         MOCLDY    72  45  38 CALM      30.06R
MULLAN PASS    CLEAR     63  41  45 N3        30.27S
SAND POINT     CLEAR     59  52  78 CALM      30.04R
SPOKANE        PTCLDY    82  39  22 E5        30.02R
$$

REGIONAL REPORTS...ALBERTA
CITY           SKY/WX    TMP DP  RH WIND       PRES   REMARKS
CALGARY        PTCLDY    61  52  72 S7        30.18S
LETHBRIDGE     CLEAR     57  54  90 E5        30.17R
MEDICINE HAT   CLEAR     59  52  78 SW5       30.14R
EDMONTON       FAIR      52  50  93 S6        30.08R
WATERTON GATE  N/A       52  50  93 SW2        N/A
CARDSTON       N/A       57  55  93 SE2        N/A
MILK RIVER     N/A       54  52  93 W3         N/A
$$

REGIONAL REPORTS...SASKATCHEWAN
CITY           SKY/WX    TMP DP  RH WIND       PRES   REMARKS
SWIFT CURRENT  HAZE      54  46  74 SW8       30.14F
REGINA         N/A       55  52  90 W8        30.12R
VAL MARIE      N/A       54  52  93 NE5        N/A
ASSINIBOIA     N/A       54  52  93 W3         N/A
CORONACH       N/A       50  46  86 W5         N/A

$$



USA.gov is the U.S. government's official web portal to all federal, state and local government web resources and services.